Regional Weather Roundup
Issued by NWS

Home | Current Version | Previous Version | Graphics & Text | Print | Product List | Glossary On
Versions: 1 2 3 4 5 6 7 8 9 10 11 12 13 14 15 16 17 18 19 20 21 22 23 24 25 26 27 28 29 30 31 32 33 34 35 36 37 38 39 40 41 42 43 44 45 46 47 48 49 50
139
ASUS43 KLMK 232310
RWRKY
KENTUCKY REGIONAL WEATHER ROUNDUP
NATIONAL WEATHER SERVICE LOUISVILLE KY
700 PM EDT TUE AUG 23 2016

NOTE "FAIR" INDICATES FEW OR NO CLOUDS BELOW 12,000 FEET
WITH NO SIGNIFICANT WEATHER AND/OR OBSTRUCTIONS TO VISIBILITY.

KYZ001>023-026-027-061>063-070>075-240000-
WESTERN AND SOUTH CENTRAL KENTUCKY

CITY           SKY/WX    TMP DP  RH WIND       PRES   REMARKS
PADUCAH        MOSUNNY   82  72  71 VRB5      30.15F
HENDERSON      CLOUDY    79  64  61 CALM      30.17S
OWENSBORO      CLOUDY    82  67  60 CALM      30.19S
HOPKINSVILLE   CLOUDY    81  71  71 S5        30.18S
BOWLING GREEN  CLOUDY    82  65  56 NE6       30.20S
GLASGOW        CLOUDY    78  68  70 CALM      30.21F
$$

KYZ024-025-028>034-038-045-046-053-240000-
NORTH CENTRAL KENTUCKY

CITY           SKY/WX    TMP DP  RH WIND       PRES   REMARKS
LOUISVILLE/SDF PTSUNNY   80  59  48 S6        30.21S
LOUISVILLE/LOU PTSUNNY   80  61  52 S6        30.21S
FORT KNOX      CLOUDY    80  65  60 CALM      30.20S
$$

KYZ035>037-039>044-047>052-055>060-089>105-240000-
NORTHEAST KENTUCKY

CITY           SKY/WX    TMP DP  RH WIND       PRES   REMARKS
LEXINGTON      MOSUNNY   79  62  56 SW5       30.24R
COVINGTON      PTSUNNY   79  62  56 S3        30.22S
FRANKFORT      MOSUNNY   80  61  52 SW5       30.22R
$$

KYZ054-064>069-076>088-106>120-240000-
SOUTHEAST KENTUCKY

CITY           SKY/WX    TMP DP  RH WIND       PRES   REMARKS
JACKSON        CLOUDY    79  61  53 NW3       30.26S
LONDON         SUNNY     81  58  45 CALM      30.25S
SOMERSET       MOSUNNY   79  59  50 CALM      30.25R
MIDDLESBORO    SUNNY     83  64  52 CALM      30.25R
MONTICELLO     PTCLDY   N/A N/A N/A W13       30.25S
$$





USA.gov is the U.S. government's official web portal to all federal, state and local government web resources and services.